Home > Weather > Kassel > Past weeks

Flag for Germany Weather for the Past 2 Weeks in Kassel, Hesse, Germany

Now
48 °F

Clear.


Feels Like: 42 °F
Forecast: 42 / 48 °F
Wind: 15 mph from South

Location: Kassel / Calden

Current Time: Feb 7, 2016 at 7:52:06 AM

Latest Report: Feb 7, 2016 at 7:20 AM


Visibility: 10 mi

Pressure: 29.53 "Hg

Humidity: 62%

Dew point: 36 °F

Location of KasselLocation

Historic Weather in Kassel — Graph

°F

Kassel Temperature Yesterday

Maximum temperature yesterday: 50 °F (at 2:20 PM)
Minimum temperature yesterday: 45 °F (at 7:20 AM)
Average temperature yesterday: 47 °F

High & Low Weather Summary for the Past Weeks

 TemperatureHumidityPressure
High52 °F (Jan 27, 1:20 PM)100% (Jan 23, 7:50 AM)30.51 "Hg (Jan 23, 7:50 AM)
Low25 °F (Jan 22, 7:50 PM)49% (Jan 28, 2:50 PM)29.65 "Hg (Jan 30, 3:20 PM)
Average43 °F85%30.09 "Hg
* Reported Jan 22 7:50 PM — Feb 6 7:50 PM, Kassel, Weather by CustomWeather, © 2016

Note: Actual official high and low records may vary slightly from our data, if they occured in-between our weather recording intervals... More about our weather records

Advertising

Kassel Weather History for the Previous 24 Hours

 ConditionsComfort  
Time TempWeatherWind HumidityBarometerVisibility
7:50 PM
Sat, Feb 6
46 °FClear.12 mph76%29.77 "Hg10 mi
7:20 PM46 °FClear.12 mph76%29.77 "Hg10 mi
6:50 PM46 °FClear.10 mph71%29.77 "Hg10 mi
6:20 PM48 °FClear.12 mph71%29.77 "Hg10 mi
5:50 PM48 °FClear.8 mph71%29.80 "Hg10 mi
5:20 PM48 °FClear.16 mph71%29.80 "Hg10 mi
4:50 PM48 °FSunny.15 mph71%29.80 "Hg10 mi
4:20 PM50 °FSunny.15 mph71%29.80 "Hg10 mi
3:50 PM50 °FPassing clouds.13 mph71%29.83 "HgN/A
3:20 PM50 °FPassing clouds.12 mph71%29.83 "HgN/A
2:50 PM50 °FPassing clouds.12 mph71%29.83 "HgN/A
2:20 PM50 °FPassing clouds.14 mph71%29.86 "HgN/A
1:50 PM48 °FPassing clouds.16 mph76%29.86 "HgN/A
1:20 PM48 °FPassing clouds.17 mph76%29.89 "HgN/A
12:50 PM46 °FPassing clouds.17 mph82%29.89 "HgN/A
12:20 PM46 °FScattered clouds.16 mph82%29.92 "HgN/A
11:50 AM46 °FPartly sunny.13 mph82%29.92 "HgN/A
11:20 AM46 °FPartly sunny.13 mph82%29.95 "HgN/A
10:50 AM45 °FPartly sunny.15 mph87%29.95 "HgN/A
10:20 AM45 °FOvercast.10 mph87%29.95 "HgN/A
9:50 AM45 °FPartly sunny.10 mph87%29.95 "HgN/A
9:20 AM45 °FPartly sunny.10 mph87%29.98 "HgN/A
8:50 AM45 °FScattered clouds.8 mph87%29.98 "HgN/A
8:20 AM45 °FPartly sunny.8 mph87%29.98 "HgN/A
7:50 AM45 °FPassing clouds.6 mph87%29.98 "HgN/A
7:20 AM45 °FPassing clouds.7 mph87%29.98 "HgN/A
Weather by CustomWeather, © 2016

See weather overviewHow to use our weather pages